• In Uzbekistan
  • List of Countries
  • For 7 days
  • Water Temperature
  • Satellite Maps
  • Weather Map
  • Weather Widgets
  • user-avatar
    Login

    Hourly Weather Cyklady

    Today, 17 December, Monday

    Time Temperature Precipitation Wind Pressure Humidity
    00:00 +2°C° 0 mm 3 mps 682 mmHg 90%
    01:00 +2°C° 0 mm 3 mps 682 mmHg 90%
    02:00 +2°C° 0 mm 3 mps 682 mmHg 89%
    03:00 +1°C° 0 mm 3 mps 682 mmHg 88%
    04:00 +1°C° 0 mm 3 mps 682 mmHg 87%
    05:00 +1°C° 0 mm 3 mps 682 mmHg 85%
    06:00 +2°C° 0 mm 2 mps 682 mmHg 83%
    07:00 +2°C° 0 mm 2 mps 682 mmHg 81%
    08:00 +4°C° 0 mm 2 mps 683 mmHg 74%
    09:00 +6°C° 0 mm 2 mps 683 mmHg 67%
    10:00 +8°C° 0 mm 2 mps 684 mmHg 60%
    11:00 +8°C° 0 mm 2 mps 683 mmHg 59%
    12:00 +9°C° 0 mm 2 mps 683 mmHg 58%
    13:00 +10°C° 0 mm 2 mps 683 mmHg 57%
    14:00 +9°C° 0 mm 2 mps 682 mmHg 63%
    15:00 +8°C° 0 mm 2 mps 682 mmHg 70%
    16:00 +7°C° 0 mm 2 mps 682 mmHg 77%
    17:00 +7°C° 0.2 mm 2 mps 681 mmHg 78%
    18:00 +7°C° 0.2 mm 2 mps 681 mmHg 79%
    19:00 +7°C° 0.2 mm 3 mps 681 mmHg 80%
    20:00 +7°C° 1.4 mm 3 mps 681 mmHg 84%
    21:00 +7°C° 1.4 mm 3 mps 681 mmHg 88%
    22:00 +7°C° 1.4 mm 3 mps 680 mmHg 92%
    23:00 +7°C° 1 mm 3 mps 680 mmHg 94%

    Tomorrow, 18 December, Tuesday

    Time Temperature Precipitation Wind Pressure Humidity
    00:00 +6°C° 1 mm 2 mps 680 mmHg 95%
    01:00 +6°C° 1 mm 2 mps 679 mmHg 96%
    02:00 +6°C° 1 mm 2 mps 679 mmHg 96%
    03:00 +6°C° 1 mm 2 mps 679 mmHg 96%
    04:00 +6°C° 1 mm 2 mps 679 mmHg 96%
    05:00 +6°C° 0.8 mm 2 mps 679 mmHg 96%
    06:00 +6°C° 0.8 mm 2 mps 679 mmHg 95%
    07:00 +5°C° 0.8 mm 2 mps 679 mmHg 95%
    08:00 +6°C° 0.4 mm 2 mps 680 mmHg 92%
    09:00 +7°C° 0.4 mm 3 mps 680 mmHg 89%
    10:00 +7°C° 0.4 mm 3 mps 681 mmHg 86%
    11:00 +7°C° 0.3 mm 3 mps 681 mmHg 83%
    12:00 +8°C° 0.3 mm 3 mps 681 mmHg 80%
    13:00 +8°C° 0.3 mm 3 mps 681 mmHg 76%
    14:00 +7°C° 0.1 mm 3 mps 681 mmHg 78%
    15:00 +5°C° 0.1 mm 3 mps 681 mmHg 81%
    16:00 +5°C° 0.1 mm 3 mps 682 mmHg 83%
    17:00 +4°C° 0 mm 3 mps 682 mmHg 84%
    18:00 +4°C° 0 mm 3 mps 682 mmHg 86%
    19:00 +3°C° 0 mm 3 mps 683 mmHg 87%
    20:00 +3°C° 0 mm 3 mps 683 mmHg 88%
    21:00 +4°C° 0 mm 2 mps 684 mmHg 88%
    22:00 +3°C° 0 mm 2 mps 684 mmHg 89%
    23:00 +3°C° 0 mm 2 mps 684 mmHg 89%

    Day after tomorrow, 19 December, Wednesday

    Time Temperature Precipitation Wind Pressure Humidity
    00:00 +3°C° 0 mm 2 mps 684 mmHg 89%
    01:00 +3°C° 0 mm 2 mps 684 mmHg 89%
    02:00 +3°C° 0 mm 2 mps 684 mmHg 88%
    03:00 +2°C° 0 mm 2 mps 684 mmHg 88%
    04:00 +2°C° 0 mm 2 mps 684 mmHg 88%
    05:00 +2°C° 0 mm 2 mps 685 mmHg 88%
    06:00 +2°C° 0 mm 2 mps 685 mmHg 87%
    07:00 +3°C° 0 mm 1 mps 686 mmHg 87%
    08:00 +5°C° 0 mm 1 mps 686 mmHg 81%
    09:00 +7°C° 0 mm 1 mps 687 mmHg 74%
    10:00 +8°C° 0 mm 0 mps 688 mmHg 67%
    11:00 +9°C° 0 mm 1 mps 687 mmHg 65%
    12:00 +10°C° 0 mm 1 mps 687 mmHg 62%
    13:00 +9°C° 0 mm 2 mps 687 mmHg 60%
    14:00 +8°C° 0 mm 2 mps 687 mmHg 66%
    15:00 +7°C° 0 mm 2 mps 687 mmHg 72%
    16:00 +6°C° 0 mm 2 mps 687 mmHg 78%
    17:00 +5°C° 0 mm 2 mps 687 mmHg 81%
    18:00 +5°C° 0 mm 1 mps 687 mmHg 85%
    19:00 +4°C° 0 mm 1 mps 687 mmHg 89%
    20:00 +4°C° 0 mm 1 mps 688 mmHg 90%
    21:00 +4°C° 0 mm 1 mps 688 mmHg 91%
    22:00 +4°C° 0 mm 1 mps 688 mmHg 91%
    23:00 +4°C° 0 mm 1 mps 688 mmHg 92%

    20 December, Thursday

    Time Temperature Precipitation Wind Pressure Humidity
    00:00 +3°C° 0 mm 1 mps 688 mmHg 92%
    01:00 +3°C° 0 mm 1 mps 688 mmHg 92%
    02:00 +3°C° 0 mm 1 mps 688 mmHg 91%
    03:00 +3°C° 0 mm 1 mps 688 mmHg 91%
    04:00 +3°C° 0 mm 1 mps 688 mmHg 90%
    05:00 +3°C° 0 mm 1 mps 688 mmHg 89%
    06:00 +3°C° 0 mm 1 mps 688 mmHg 88%
    07:00 +3°C° 0 mm 1 mps 688 mmHg 87%
    08:00 +5°C° 0 mm 1 mps 689 mmHg 80%
    09:00 +7°C° 0 mm 1 mps 689 mmHg 73%
    10:00 +9°C° 0 mm 1 mps 690 mmHg 65%
    11:00 +9°C° 0 mm 1 mps 689 mmHg 63%
    12:00 +10°C° 0 mm 1 mps 689 mmHg 60%
    13:00 +10°C° 0 mm 1 mps 689 mmHg 57%
    14:00 +9°C° 0 mm 1 mps 689 mmHg 64%
    15:00 +8°C° 0 mm 1 mps 688 mmHg 70%
    16:00 +7°C° 0 mm 1 mps 688 mmHg 77%
    17:00 +6°C° 0 mm 1 mps 688 mmHg 80%
    18:00 +6°C° 0 mm 1 mps 688 mmHg 83%
    19:00 +5°C° 0 mm 1 mps 688 mmHg 86%
    20:00 +4°C° 0 mm 2 mps 688 mmHg 84%
    21:00 +4°C° 0 mm 2 mps 688 mmHg 82%
    22:00 +4°C° 0 mm 2 mps 688 mmHg 81%
    23:00 +4°C° 0 mm 2 mps 688 mmHg 80%

    21 December, Friday

    Time Temperature Precipitation Wind Pressure Humidity
    00:00 +4°C° 0 mm 2 mps 688 mmHg 80%
    01:00 +4°C° 0 mm 2 mps 688 mmHg 79%
    02:00 +4°C° 0.1 mm 2 mps 687 mmHg 82%
    03:00 +4°C° 0.1 mm 2 mps 687 mmHg 84%
    04:00 +4°C° 0.1 mm 2 mps 687 mmHg 86%
    05:00 +4°C° 0.3 mm 2 mps 687 mmHg 87%
    06:00 +5°C° 0.3 mm 2 mps 687 mmHg 88%
    07:00 +5°C° 0.3 mm 2 mps 688 mmHg 90%
    08:00 +6°C° 0.4 mm 2 mps 688 mmHg 88%
    09:00 +7°C° 0.4 mm 2 mps 688 mmHg 86%
    10:00 +8°C° 0.4 mm 2 mps 688 mmHg 85%
    11:00 +8°C° 0.7 mm 2 mps 688 mmHg 86%
    12:00 +8°C° 0.7 mm 2 mps 688 mmHg 88%
    13:00 +8°C° 0.7 mm 2 mps 687 mmHg 89%
    14:00 +8°C° 0.5 mm 2 mps 687 mmHg 91%
    15:00 +8°C° 0.5 mm 2 mps 687 mmHg 92%
    16:00 +8°C° 0.5 mm 2 mps 687 mmHg 93%
    17:00 +7°C° 0.1 mm 2 mps 687 mmHg 94%
    18:00 +7°C° 0.1 mm 2 mps 687 mmHg 94%
    19:00 +7°C° 0.1 mm 2 mps 687 mmHg 95%
    20:00 +6°C° 0 mm 2 mps 687 mmHg 95%
    21:00 +6°C° 0 mm 2 mps 687 mmHg 95%
    22:00 +5°C° 0 mm 2 mps 687 mmHg 95%
    23:00 +5°C° 0 mm 2 mps 687 mmHg 95%

    22 December, Saturday

    Time Temperature Precipitation Wind Pressure Humidity
    00:00 +5°C° 0 mm 2 mps 687 mmHg 95%
    01:00 +4°C° 0 mm 3 mps 687 mmHg 95%
    02:00 +3°C° 0 mm 3 mps 687 mmHg 95%
    03:00 +3°C° 0 mm 3 mps 687 mmHg 95%
    04:00 +3°C° 0 mm 3 mps 687 mmHg 94%
    05:00 +3°C° 0 mm 3 mps 687 mmHg 94%
    06:00 +2°C° 0 mm 3 mps 687 mmHg 93%
    07:00 +2°C° 0 mm 3 mps 688 mmHg 93%
    08:00 +5°C° 0 mm 2 mps 688 mmHg 86%
    09:00 +7°C° 0 mm 2 mps 689 mmHg 80%
    10:00 +8°C° 0 mm 2 mps 689 mmHg 73%
    11:00 +9°C° 0 mm 2 mps 689 mmHg 68%
    12:00 +9°C° 0 mm 2 mps 689 mmHg 64%
    13:00 +10°C° 0 mm 2 mps 689 mmHg 59%
    14:00 +9°C° 0 mm 2 mps 689 mmHg 65%
    15:00 +8°C° 0 mm 2 mps 689 mmHg 70%
    16:00 +7°C° 0 mm 2 mps 688 mmHg 75%
    17:00 +6°C° 0 mm 2 mps 689 mmHg 79%
    18:00 +5°C° 0 mm 2 mps 689 mmHg 82%
    19:00 +4°C° 0 mm 2 mps 689 mmHg 86%
    20:00 +4°C° 0 mm 2 mps 689 mmHg 86%
    21:00 +4°C° 0 mm 2 mps 689 mmHg 86%
    22:00 +3°C° 0 mm 2 mps 689 mmHg 86%
    23:00 +3°C° 0 mm 2 mps 689 mmHg 84%
    Show more